EW2889 Weather Reports


time (UTC)temp
F
wind
direction
speed
knots
gust
knots
rain 1hr
in
rain 24hr
in
rain mn
in
humidity
%
barometer
mb
20260508030023 50 34 0.0 0.0 0.00 1.30 1.30 97 1011.6
20260508024538 51 34 0.0 0.0 0.00 1.30 1.30 97 1011.4
20260508023056 51 34 0.0 0.0 0.00 1.30 1.30 97 1011.1
20260508021510 51 34 0.0 0.0 0.00 1.30 1.30 97 1011.2
20260508020021 51 34 0.0 0.0 0.00 1.30 1.30 97 1011.5
20260508014538 51 34 0.0 0.0 0.00 1.30 1.30 97 1011.2
20260508013034 51 34 0.0 0.0 0.00 1.30 1.30 97 1011.0
20260508011552 51 34 0.0 0.0 0.00 1.30 1.30 97 1011.1
20260508010037 51 51 0.0 0.0 0.00 1.30 1.30 97 1010.5
20260508004555 52 44 0.0 0.0 0.00 1.30 1.30 97 1010.5
20260508003008 52 40 0.0 0.0 0.00 1.30 1.30 97 1010.3
20260508001529 52 34 0.0 0.0 0.01 1.30 1.30 97 1009.9
20260508000044 52 96 0.0 0.0 0.01 1.30 1.30 97 1009.8
20260507234502 52 61 0.0 0.0 0.01 1.30 1.30 97 1009.9
20260507233025 52 131 0.0 0.0 0.01 1.30 1.30 96 1009.8
20260507231537 52 131 0.0 0.0 0.00 1.29 1.29 96 1010.4
20260507230007 52 131 0.0 0.0 0.00 1.29 1.29 96 1010.2
20260507224528 51 153 0.0 0.0 0.00 1.29 1.29 96 1009.6
20260507223047 51 42 0.0 0.0 0.00 1.29 1.29 95 1009.9
20260507221602 51 42 0.0 0.0 0.00 1.29 1.29 95 1009.8
20260507220018 51 16 0.0 0.0 0.00 1.29 1.29 95 1009.7
20260507214539 51 86 0.0 0.0 0.02 1.29 1.29 95 1009.6
20260507213106 51 65 0.0 1.7 0.02 1.29 1.29 95 1009.8
20260507211510 52 48 0.0 0.0 0.02 1.29 1.29 96 1009.4
20260507210030 52 60 0.0 0.0 0.04 1.29 1.29 96 1009.9
20260507204553 52 98 0.0 0.0 0.02 1.27 1.27 96 1009.4
20260507203101 52 60 0.0 0.0 0.02 1.27 1.27 96 1009.1
20260507201521 52 61 0.0 0.0 0.02 1.27 1.27 96 1009.3
20260507200056 52 84 0.0 0.9 0.00 1.25 1.25 96 1008.9
20260507194513 52 40 0.0 0.0 0.00 1.25 1.25 96 1009.0
20260507193032 52 17 0.0 0.0 0.00 1.25 1.25 96 1008.9
20260507191610 52 25 0.0 1.7 0.00 1.25 1.25 96 1009.1
20260507190006 52 34 0.0 2.6 0.00 1.25 1.25 96 1009.4
20260507184521 53 46 0.0 0.0 0.02 1.25 1.25 96 1009.7
20260507183046 53 33 0.0 0.0 0.04 1.25 1.25 96 1010.1
20260507181552 53 52 0.0 7.0 0.06 1.25 1.25 97 1009.6
20260507180124 52 58 0.0 3.5 0.08 1.25 1.25 96 1009.6
20260507174515 52 28 0.0 0.9 0.08 1.23 1.23 97 1010.4
20260507173035 53 94 0.0 0.0 0.08 1.21 1.21 97 1010.6
20260507171552 52 43 0.0 0.0 0.08 1.19 1.19 96 1010.7
20260507170010 53 84 0.0 1.7 0.11 1.15 1.15 96 1011.1
20260507164531 53 94 0.0 0.9 0.26 1.13 1.13 97 1010.9
20260507163044 52 41 0.0 0.0 0.38 1.12 1.12 96 1011.1
20260507161609 52 32 0.0 0.0 0.43 1.11 1.11 96 1011.0
20260507160031 54 98 0.0 2.6 0.48 1.05 1.05 96 1010.7
20260507154551 55 91 0.0 7.8 0.37 0.88 0.88 96 1010.8
20260507153116 56 70 0.0 0.0 0.26 0.75 0.75 96 1010.9
20260507151505 57 8 0.0 1.7 0.20 0.67 0.67 96 1010.9
20260507150029 57 49 0.0 1.7 0.11 0.56 0.56 96 1010.7
20260507144549 58 36 0.0 0.9 0.05 0.51 0.51 96 1010.8
20260507143111 59 46 0.0 3.5 0.05 0.49 0.49 96 1010.6
20260507141531 59 47 0.0 3.5 0.04 0.47 0.47 96 1010.3
20260507140041 60 30 0.0 4.3 0.05 0.46 0.46 96 1010.4
20260507134558 60 63 0.0 0.0 0.08 0.46 0.46 96 1010.2
20260507133011 60 23 0.0 0.0 0.09 0.44 0.44 96 1010.2
20260507131526 60 150 0.0 0.0 0.11 0.43 0.43 96 1010.3
20260507130046 60 29 0.0 0.0 0.19 0.41 0.41 96 1010.5
20260507124604 61 326 0.0 0.0 0.23 0.38 0.38 95 1010.6
20260507123018 62 169 0.0 0.9 0.24 0.35 0.35 94 1010.4
20260507121544 65 289 0.0 0.0 0.24 0.32 0.32 95 1010.2
20260507120054 66 34 0.0 0.0 0.16 0.22 0.22 96 1010.3
20260507114521 66 35 0.0 0.0 0.10 0.14 0.14 96 1010.0
20260507113030 66 35 0.0 0.0 0.08 0.11 0.11 95 1010.0
20260507111549 66 35 0.0 0.0 0.06 0.08 0.08 95 1010.0
20260507110001 66 35 0.0 0.0 0.05 0.06 0.06 95 1009.9
20260507104536 66 35 0.0 0.0 0.04 0.04 0.04 94 1009.8
20260507103058 67 96 0.0 0.0 0.03 0.03 0.03 93 1009.7
20260507101510 67 20 0.0 0.0 0.02 0.02 0.02 92 1009.4
20260507100045 67 189 0.0 0.0 0.01 0.01 0.01 91 1009.1
20260507094553 67 281 0.0 0.0 0.01 0.01 0.01 90 1009.2
20260507093008 68 254 0.0 0.0 0.00 0.00 0.00 89 1009.0
20260507091513 68 131 0.0 0.0 0.00 0.00 0.00 88 1008.9
20260507090026 68 307 0.0 0.0 0.00 0.00 0.00 88 1009.1
20260507084553 68 304 0.0 0.0 0.00 0.00 0.00 87 1009.4
20260507083015 69 319 0.0 0.0 0.00 0.00 0.00 86 1009.6
20260507081556 69 278 0.0 0.0 0.00 0.00 0.00 84 1009.7
20260507080002 69 262 0.0 0.0 0.00 0.00 0.00 83 1009.7
20260507074521 69 301 0.0 0.0 0.00 0.00 0.00 84 1010.0
20260507073036 69 282 0.0 0.0 0.00 0.00 0.00 85 1009.8
20260507071554 68 127 0.0 0.0 0.00 0.00 0.00 85 1010.1
20260507070011 69 262 0.0 0.0 0.00 0.00 0.00 85 1009.8
20260507064601 69 259 0.0 0.0 0.00 0.00 0.00 84 1009.5
20260507063109 69 149 0.0 0.0 0.00 0.00 0.00 83 1009.3
20260507061509 69 97 0.0 0.0 0.00 0.00 0.00 83 1010.3
20260507060026 69 290 0.0 0.0 0.00 0.00 0.00 81 1010.7
20260507054552 70 258 0.0 0.0 0.00 0.00 0.00 79 1010.8
20260507053001 71 306 0.0 0.0 0.00 0.00 0.00 76 1010.9
20260507051530 71 252 0.0 0.0 0.00 0.00 0.00 73 1010.9
20260507050050 71 281 0.0 0.0 0.00 0.00 0.00 72 1010.8
20260507044502 71 212 0.0 0.0 0.00 0.00 0.00 71 1010.6
20260507043020 71 245 0.0 0.0 0.00 0.00 0.00 71 1010.7
20260507041545 71 258 0.0 0.0 0.00 0.00 0.00 71 1010.8
20260507040004 72 96 0.0 0.0 0.00 0.00 0.00 71 1010.7
20260507034516 72 210 0.0 0.0 0.00 0.00 0.00 71 1010.3
20260507033036 72 260 0.0 0.0 0.00 0.00 0.00 72 1010.4
20260507031553 72 125 0.0 0.0 0.00 0.00 0.00 72 1010.4